Zurück zum Katalog

ARIANE 5 DEB

SYLDA

AktivHEO
NORAD 49057·DEBRIS·🇫🇷 France

Gestartet Jul 30, 2021 von Guiana Space Centre

Loading…

Nächste Überflüge (nächste 24 Stunden)

TLE

AktuellSource: Space-Track

Epoche: Sep 14, 2026, 13:40 UTC

1 49057U 21069C   26257.56981704  .00046783  00000-0  76805-2 0  9991
2 49057   3.0697 147.3246 6371547  71.5176 344.7553  3.51004063 53910

Verfolge ARIANE 5 DEB in Echtzeit mit AllMySat

Download on the App Store